Hourly Data Report for April 30, 2021

NANAIMO A
BRITISH COLUMBIA
Current Station Operator: NAVCAN

49°03'16.000" N
123°52'12.000" W
28.00 m
1025365
YCD

Download Data

Hourly Data (April 2021)
Hourly Data Report for April 30, 2021
TIME
LST
Temp Definition
°C
Dew Point Definition
°C
Rel Hum Definition
%
Precip. Amount Definition
mm

Wind Dir Definition
10's deg

Wind Spd Definition
km/h
Visibility Definition
km
Stn Press Definition
kPa
Hmdx Definition


Wind Chill Definition


Weather Definition


00:00 12.6 6.7 67 LegendMM 30 4 LegendMM 101.83     LegendNANA
01:00 10.7 8.2 85 LegendMM 4 7 LegendMM 101.84     LegendNANA
02:00 10.1 9.3 95 LegendMM 1 5 LegendMM 101.78     LegendNANA
03:00 10.1 9.6 97 LegendMM 23 4 LegendMM 101.75     LegendNANA
04:00 10.0 9.8 99 LegendMM 18 5 LegendMM 101.77     LegendNANA
05:00 10.2 10.0 99 LegendMM 11 4 LegendMM 101.74     LegendNANA
06:00 10.1 9.3 95 LegendMM 11 9 LegendMM 101.72     LegendNANA
07:00 10.8 9.7 93 LegendMM 13 14 LegendMM 101.69     LegendNANA
08:00 12.2 9.0 81 LegendMM 15 17 LegendMM 101.70     LegendNANA
09:00 12.9 9.8 81 LegendMM 16 21 LegendMM 101.69     LegendNANA
10:00 14.9 10.6 75 LegendMM 17 19 LegendMM 101.69     LegendNANA
11:00 16.3 11.1 71 LegendMM 14 8 LegendMM 101.67     LegendNANA
12:00 16.6 10.6 67 LegendMM 4 10 LegendMM 101.66     LegendNANA
13:00 18.8 10.1 57 LegendMM 5 8 LegendMM 101.63     LegendNANA
14:00 19.1 5.0 39 LegendMM 22 18 LegendMM 101.62     LegendNANA
15:00 18.9 4.7 39 LegendMM 23 9 LegendMM 101.59     LegendNANA
16:00 18.6 3.8 37 LegendMM 23 15 LegendMM 101.54     LegendNANA
17:00 17.7 3.5 39 LegendMM 23 17 LegendMM 101.53     LegendNANA
18:00 16.7 3.5 41 LegendMM 25 17 LegendMM 101.49     LegendNANA
19:00 15.2 3.9 47 LegendMM 29 16 LegendMM 101.50     LegendNANA
20:00 13.8 3.8 51 LegendMM 25 14 LegendMM 101.53     LegendNANA
21:00 13.1 3.6 52 LegendMM 27 11 LegendMM 101.56     LegendNANA
22:00 12.6 3.9 55 LegendMM 25 14 LegendMM 101.56     LegendNANA
23:00 11.6 4.0 59 LegendMM 23 10 LegendMM 101.57     LegendNANA

Notes on Data Quality.

Legend

  • E = Estimated
  • M = Missing
  • NA = Not Available*
  • [empty] = Indicates an unobserved value
Date modified: